Regional Weather Roundup
Issued by NWS

Home | Current Version | Previous Version | Graphics & Text | Print | Product List | Glossary On
Versions: 1 2 3 4 5 6 7 8 9 10 11 12 13 14 15 16 17 18 19 20 21 22 23 24 25 26 27 28 29 30 31 32 33 34 35 36 37 38 39 40 41 42 43 44 45 46 47 48 49 50
000
ASUS43 KLSX 302207
RWRMO

WEATHER SUMMARY FOR MISSOURI
NATIONAL WEATHER SERVICE SPRINGFIELD MO
500 PM CDT WED JUL 30 2014

NOTE: "FAIR" INDICATES FEW OR NO CLOUDS BELOW 12,000 FEET WITH NO
       SIGNIFICANT WEATHER AND/OR OBSTRUCTIONS TO VISIBILITY.
       CURRENT SKY AND/OR WEATHER CONDITIONS ARE NOT AVAILABLE FOR
       CHILLICOTHE AND FARMINGTON.

MOZ001>031-035>038-043-044-053-054-302300-
...NORTHERN AND WESTERN MISSOURI...

CITY           SKY/WX    TMP DP  RH WIND       PRES   REMARKS
KANSAS CTY INT CLOUDY    80  57  45 N9        30.08F
KANSAS C DTWN  CLOUDY    80  55  42 E8        30.06F
LEE`S SUMMIT   CLOUDY    77  56  48 E5        30.08F
ST JOSEPH      PTSUNNY   80  56  43 NE7       30.09S
CHILLICOTHE      N/A     83  54  36 VRB3      30.08S
KIRKSVILLE     MOSUNNY   82  54  37 VRB5      30.08F

$$
MOZ066>068-077>081-088>096-101>105-302300-
...SOUTHWEST MISSOURI...

CITY           SKY/WX    TMP DP  RH WIND       PRES   REMARKS
SPRINGFIELD    LGT RAIN  71  65  81 SW3       30.10S
JOPLIN         LGT RAIN  67  66  97 VRB6      30.09S

$$
MOZ032>034-039>042-045>050-055>058-069>072-302300-
...CENTRAL MISSOURI...

CITY           SKY/WX    TMP DP  RH WIND       PRES   REMARKS
COLUMBIA       PTSUNNY   80  57  45 NW3       30.07S
JEFFERSON CITY PTSUNNY   80  55  42 CALM      30.05S
ROLLA          CLOUDY    76  55  48 SW5       30.07F
SEDALIA        CLOUDY    78  59  51 S6        30.08S
WHITEMAN AFB   PTSUNNY   78  50  37 SW7       30.07F
OSAGE BEACH    CLOUDY    75  57  53 CALM      30.08F

$$
MOZ051-052-059>065-302300-
...EAST CENTRAL MISSOURI...

CITY           SKY/WX    TMP DP  RH WIND       PRES   REMARKS
ST LOUIS INTL  PTSUNNY   84  55  36 VRB6      30.05F
SPIRIT OF STL  PTSUNNY   83  53  35 N6        30.04S
ST CHARLES     MOSUNNY   82  56  40 NW6       30.04F

$$
MOZ072>076-082>087-097>100-106>115-302300-
...SOUTH CENTRAL AND SOUTHEAST MISSOURI...

CITY           SKY/WX    TMP DP  RH WIND       PRES   REMARKS
CAPE GIRARDEAU CLOUDY    76  62  62 CALM      30.08F
FARMINGTON     CLOUDY    75  63  64 S8        30.10S
POPLAR BLUFF   CLOUDY    77  61  57 SW7       30.07S
WEST PLAINS    CLOUDY    70  66  87 SW7       30.11S

$$


USA.gov is the U.S. government's official web portal to all federal, state and local government web resources and services.